Terminal Aerodrome Forecast
Issued by NWS New Orleans/Baton Rouge, LA

Home | Current Version | Previous Version | Text Only | Print | Product List | Glossary On
Versions: 1 2 3 4 5 6 7 8 9 10 11 12 13 14
000
FTUS44 KLIX 190500 RRA
TAFBTR
TAF
KBTR 190540Z 1906/2006 03005KT P6SM FEW090 FEW250
     FM191200 36009KT P6SM FEW250
     FM200000 35004KT P6SM FEW250
     FM200400 VRB03KT P6SM FEW050=

USA.gov is the U.S. government's official web portal to all federal, state and local government web resources and services.